Location: Cormont
(50.5693°N, 1.7416°E)
Time: 01:56:54
(UTC+00:00)

Cosmos 1238 Rocket - Pass Details

Date: 21 October 2019
Orbit: 376 x 1032 km, 82.9° (Epoch: 14 November)

Event Time Altitude Azimuth Distance (km) Brightness Sun altitude
Rises 20:00:27 0° 350° (N) 3,802 7.5 -30.6°
Reaches altitude 10° 20:03:05 10° 351° (N) 2,840 6.8 -31.0°
Enters shadow 20:08:37 63° 358° (N) 1,108 4.2 -31.8°
